Etusivu
METAR-TAF:

METAR-TAF

Lentoasemat :

Rand Airport

Germiston, Etelä-Afrikka

Leveyspiiri: 26-14-33S, Pituuspiiri: 028-09-04E, korkeus merenpinnasta: 1671 m

Tämänhetkinen sää

Tämä raportti tehtiin 1 tunti ja 22 minuuttia sitten, kello 09.00 UTC
Tuuli 8 kn pohjoisen/luoteesta
Lämpötila 20°C
Kosteus 4%
Ilmanpaine 1026 hPa
Näkyvyys 10 km tai enemmän
ei pilviä alle 1500 m:ssä eikä cumulonimbus-pilviä

METAR: FAGM 120900Z 33008KT CAVOK 20/M23 Q1026

Aika: 12:22 (10:22 UTC)


TAF: puuttuu

Säähavainnot ja -ennusteet yli 4000 lentoasemalta (METAR- ja TAF-raportit).

Käytössä olevat sääasemat on merkitty karttaan keltaisilla ja punaisilla pisteillä.

Aseta hiiri pisteen päälle nähdäksesi sääaseman nimen.

Klikkaa sitten nähdäksesi säähavainnot ja -ennusteet.

Kartan vaihtaminen: klikkaa mustalla rastilla varustettuja vihreitä pisteitä, niin voit zoomata sisään; viivalla varustettua vihreää pistettä, niin voit zoomata ulos tai vihreitä nuolia, niin pääset viereisille kartoille.


METAR-TAF: